| time (UTC) | temp F | wind direction | speed MPH | gust MPH | rain 1hr in | rain 24hr in | rain mn in | humidity % | barometer mb |
| 20260906222557 | 97 | 72 | 1.0 | 10.0 | 0.00 | 0.00 | 0.00 | 39 | 1010.4 |
| 20260906222058 | 97 | 101 | 1.0 | 7.0 | 0.00 | 0.00 | 0.00 | 39 | 1010.4 |
| 20260906221556 | 97 | 192 | 1.0 | 10.0 | 0.00 | 0.00 | 0.00 | 38 | 1010.4 |
| 20260906221054 | 97 | 202 | 3.0 | 10.0 | 0.00 | 0.00 | 0.00 | 38 | 1010.3 |
| 20260906220554 | 97 | 129 | 1.0 | 6.0 | 0.00 | 0.00 | 0.00 | 39 | 1010.4 |
| 20260906220100 | 97 | 89 | 0.0 | 6.0 | 0.00 | 0.00 | 0.00 | 39 | 1010.4 |
| 20260906215554 | 97 | 95 | 0.0 | 6.0 | 0.00 | 0.00 | 0.00 | 38 | 1010.3 |
| 20260906215054 | 98 | 91 | 1.0 | 8.0 | 0.00 | 0.00 | 0.00 | 38 | 1010.3 |
| 20260906214602 | 98 | 131 | 0.0 | 8.0 | 0.00 | 0.00 | 0.00 | 38 | 1010.4 |
| 20260906214056 | 98 | 83 | 0.0 | 12.0 | 0.00 | 0.00 | 0.00 | 39 | 1010.4 |
| 20260906213552 | 98 | 74 | 1.0 | 12.0 | 0.00 | 0.00 | 0.00 | 39 | 1010.5 |
| 20260906213055 | 98 | 81 | 3.0 | 7.0 | 0.00 | 0.00 | 0.00 | 38 | 1010.6 |
| 20260906212550 | 98 | 90 | 2.0 | 8.0 | 0.00 | 0.00 | 0.00 | 39 | 1010.7 |
| 20260906212054 | 98 | 91 | 3.0 | 10.0 | 0.00 | 0.00 | 0.00 | 39 | 1010.7 |
| 20260906211550 | 98 | 83 | 1.0 | 10.0 | 0.00 | 0.00 | 0.00 | 40 | 1010.8 |
| 20260906211050 | 98 | 123 | 0.0 | 4.0 | 0.00 | 0.00 | 0.00 | 40 | 1010.8 |
| 20260906210549 | 98 | 121 | 1.0 | 4.0 | 0.00 | 0.00 | 0.00 | 40 | 1010.9 |
| 20260906210048 | 98 | 92 | 0.0 | 10.0 | 0.00 | 0.00 | 0.00 | 39 | 1011.0 |
| 20260906205548 | 98 | 95 | 2.0 | 10.0 | 0.00 | 0.00 | 0.00 | 40 | 1011.1 |
| 20260906205047 | 99 | 79 | 1.0 | 9.0 | 0.00 | 0.00 | 0.00 | 39 | 1011.2 |
| 20260906204546 | 99 | 81 | 1.0 | 9.0 | 0.00 | 0.00 | 0.00 | 39 | 1011.2 |
| 20260906204045 | 99 | 109 | 1.0 | 8.0 | 0.00 | 0.00 | 0.00 | 39 | 1011.3 |
| 20260906203545 | 99 | 104 | 1.0 | 10.0 | 0.00 | 0.00 | 0.00 | 39 | 1011.3 |
| 20260906203044 | 99 | 78 | 2.0 | 12.0 | 0.00 | 0.00 | 0.00 | 38 | 1011.4 |
| 20260906202543 | 99 | 95 | 3.0 | 12.0 | 0.00 | 0.00 | 0.00 | 38 | 1011.5 |
| 20260906202043 | 99 | 85 | 0.0 | 9.0 | 0.00 | 0.00 | 0.00 | 39 | 1011.6 |
| 20260906201545 | 99 | 88 | 1.0 | 10.0 | 0.00 | 0.00 | 0.00 | 39 | 1011.6 |
| 20260906201043 | 98 | 62 | 1.0 | 11.0 | 0.00 | 0.00 | 0.00 | 40 | 1011.7 |
| 20260906200542 | 98 | 74 | 3.0 | 13.0 | 0.00 | 0.00 | 0.00 | 39 | 1011.7 |
| 20260906200045 | 99 | 77 | 3.0 | 13.0 | 0.00 | 0.00 | 0.00 | 39 | 1011.8 |
| 20260906195542 | 99 | 81 | 1.0 | 13.0 | 0.00 | 0.00 | 0.00 | 39 | 1011.8 |
| 20260906195041 | 99 | 91 | 2.0 | 13.0 | 0.00 | 0.00 | 0.00 | 39 | 1011.8 |
| 20260906194540 | 99 | 190 | 3.0 | 9.0 | 0.00 | 0.00 | 0.00 | 39 | 1011.9 |
| 20260906194041 | 99 | 166 | 1.0 | 5.0 | 0.00 | 0.00 | 0.00 | 39 | 1011.9 |
| 20260906193540 | 99 | 72 | 1.0 | 10.0 | 0.00 | 0.00 | 0.00 | 39 | 1012.1 |
| 20260906193040 | 99 | 86 | 3.0 | 10.0 | 0.00 | 0.00 | 0.00 | 39 | 1012.0 |
| 20260906192542 | 99 | 158 | 1.0 | 6.0 | 0.00 | 0.00 | 0.00 | 39 | 1012.1 |
| 20260906192039 | 99 | 160 | 0.0 | 8.0 | 0.00 | 0.00 | 0.00 | 39 | 1012.1 |
| 20260906191543 | 99 | 143 | 2.0 | 8.0 | 0.00 | 0.00 | 0.00 | 41 | 1012.3 |
| 20260906191041 | 98 | 83 | 0.0 | 9.0 | 0.00 | 0.00 | 0.00 | 41 | 1012.3 |
| 20260906190542 | 98 | 81 | 1.0 | 9.0 | 0.00 | 0.00 | 0.00 | 42 | 1012.4 |
| 20260906190036 | 98 | 81 | 3.0 | 9.0 | 0.00 | 0.00 | 0.00 | 42 | 1012.4 |
| 20260906185533 | 98 | 185 | 1.0 | 4.0 | 0.00 | 0.00 | 0.00 | 43 | 1012.4 |
| 20260906185033 | 98 | 185 | 1.0 | 8.0 | 0.00 | 0.00 | 0.00 | 42 | 1012.6 |
| 20260906184531 | 98 | 185 | 2.0 | 8.0 | 0.00 | 0.00 | 0.00 | 44 | 1012.5 |
| 20260906184029 | 97 | 138 | 1.0 | 8.0 | 0.00 | 0.00 | 0.00 | 45 | 1012.6 |
| 20260906183527 | 96 | 161 | 2.0 | 8.0 | 0.00 | 0.00 | 0.00 | 44 | 1012.6 |
| 20260906183027 | 96 | 82 | 2.0 | 8.0 | 0.00 | 0.00 | 0.00 | 45 | 1012.7 |
| 20260906182524 | 96 | 92 | 1.0 | 8.0 | 0.00 | 0.00 | 0.00 | 45 | 1012.8 |
| 20260906182023 | 96 | 91 | 3.0 | 12.0 | 0.00 | 0.00 | 0.00 | 44 | 1012.8 |
| 20260906181522 | 96 | 89 | 2.0 | 12.0 | 0.00 | 0.00 | 0.00 | 45 | 1012.9 |
| 20260906181021 | 96 | 113 | 1.0 | 8.0 | 0.00 | 0.00 | 0.00 | 45 | 1012.9 |
| 20260906180519 | 95 | 84 | 1.0 | 8.0 | 0.00 | 0.00 | 0.00 | 45 | 1012.9 |
| 20260906180018 | 95 | 104 | 0.0 | 9.0 | 0.00 | 0.00 | 0.00 | 45 | 1013.1 |
| 20260906175518 | 95 | 88 | 1.0 | 13.0 | 0.00 | 0.00 | 0.00 | 45 | 1013.1 |
| 20260906175017 | 95 | 76 | 6.0 | 14.0 | 0.00 | 0.00 | 0.00 | 45 | 1013.3 |
| 20260906174515 | 95 | 80 | 1.0 | 14.0 | 0.00 | 0.00 | 0.00 | 46 | 1013.3 |
| 20260906174014 | 95 | 87 | 3.0 | 10.0 | 0.00 | 0.00 | 0.00 | 47 | 1013.4 |
| 20260906173512 | 94 | 104 | 4.0 | 10.0 | 0.00 | 0.00 | 0.00 | 46 | 1013.4 |
| 20260906173011 | 94 | 111 | 1.0 | 13.0 | 0.00 | 0.00 | 0.00 | 47 | 1013.5 |
| 20260906172509 | 94 | 54 | 3.0 | 13.0 | 0.00 | 0.00 | 0.00 | 48 | 1013.6 |
| 20260906172009 | 94 | 71 | 1.0 | 11.0 | 0.00 | 0.00 | 0.00 | 48 | 1013.6 |
| 20260906171508 | 93 | 69 | 1.0 | 10.0 | 0.00 | 0.00 | 0.00 | 48 | 1013.8 |
| 20260906171005 | 93 | 87 | 1.0 | 10.0 | 0.00 | 0.00 | 0.00 | 48 | 1013.8 |
| 20260906170509 | 93 | 89 | 2.0 | 10.0 | 0.00 | 0.00 | 0.00 | 48 | 1014.0 |
| 20260906170005 | 93 | 95 | 1.0 | 10.0 | 0.00 | 0.00 | 0.00 | 48 | 1014.1 |
| 20260906165502 | 93 | 86 | 3.0 | 10.0 | 0.00 | 0.00 | 0.00 | 50 | 1014.1 |
| 20260906165100 | 92 | 77 | 1.0 | 8.0 | 0.00 | 0.00 | 0.00 | 50 | 1014.0 |
| 20260906164559 | 92 | 75 | 2.0 | 9.0 | 0.00 | 0.00 | 0.00 | 50 | 1014.0 |
| 20260906164059 | 92 | 83 | 2.0 | 9.0 | 0.00 | 0.00 | 0.00 | 51 | 1014.0 |
| 20260906163555 | 91 | 83 | 1.0 | 9.0 | 0.00 | 0.00 | 0.00 | 51 | 1013.9 |
| 20260906163114 | 90 | 80 | 1.0 | 7.0 | 0.00 | 0.00 | 0.00 | 52 | 1013.9 |
| 20260906162553 | 90 | 85 | 1.0 | 4.0 | 0.00 | 0.00 | 0.00 | 54 | 1013.9 |
| 20260906162051 | 90 | 81 | 1.0 | 9.0 | 0.00 | 0.00 | 0.00 | 53 | 1013.8 |
| 20260906161551 | 90 | 81 | 2.0 | 9.0 | 0.00 | 0.00 | 0.00 | 54 | 1013.9 |
| 20260906161049 | 89 | 95 | 0.0 | 4.0 | 0.00 | 0.00 | 0.00 | 55 | 1013.8 |
| 20260906160549 | 89 | 95 | 1.0 | 7.0 | 0.00 | 0.00 | 0.00 | 55 | 1013.9 |
| 20260906160047 | 88 | 79 | 1.0 | 9.0 | 0.00 | 0.00 | 0.00 | 56 | 1013.8 |
| 20260906155545 | 88 | 78 | 3.0 | 9.0 | 0.00 | 0.00 | 0.00 | 57 | 1013.7 |
| 20260906155043 | 87 | 104 | 1.0 | 7.0 | 0.00 | 0.00 | 0.00 | 58 | 1013.6 |
| 20260906154542 | 87 | 111 | 0.0 | 7.0 | 0.00 | 0.00 | 0.00 | 58 | 1013.7 |
| 20260906154041 | 86 | 109 | 1.0 | 7.0 | 0.00 | 0.00 | 0.00 | 59 | 1013.7 |
| 20260906153539 | 86 | 94 | 0.0 | 6.0 | 0.00 | 0.00 | 0.00 | 59 | 1013.7 |
| 20260906153045 | 86 | 94 | 0.0 | 6.0 | 0.00 | 0.00 | 0.00 | 61 | 1013.7 |
| 20260906152537 | 85 | 94 | 2.0 | 7.0 | 0.00 | 0.00 | 0.00 | 61 | 1013.6 |
| 20260906152036 | 85 | 95 | 3.0 | 8.0 | 0.00 | 0.00 | 0.00 | 60 | 1013.6 |
| 20260906151536 | 84 | 96 | 3.0 | 8.0 | 0.00 | 0.00 | 0.00 | 60 | 1013.7 |
| 20260906151038 | 84 | 99 | 4.0 | 8.0 | 0.00 | 0.00 | 0.00 | 60 | 1013.5 |
| 20260906150534 | 84 | 123 | 0.0 | 4.0 | 0.00 | 0.00 | 0.00 | 60 | 1013.5 |
| 20260906150034 | 83 | 123 | 2.0 | 6.0 | 0.00 | 0.00 | 0.00 | 60 | 1013.5 |
| 20260906145533 | 83 | 124 | 2.0 | 6.0 | 0.00 | 0.00 | 0.00 | 60 | 1013.5 |
| 20260906145033 | 82 | 138 | 0.0 | 4.0 | 0.00 | 0.00 | 0.00 | 60 | 1013.6 |
| 20260906144535 | 82 | 138 | 1.0 | 5.0 | 0.00 | 0.00 | 0.00 | 60 | 1013.6 |
| 20260906144031 | 82 | 141 | 2.0 | 5.0 | 0.00 | 0.00 | 0.00 | 60 | 1013.6 |
| 20260906143535 | 81 | 145 | 0.0 | 5.0 | 0.00 | 0.00 | 0.00 | 60 | 1013.6 |
| 20260906143033 | 81 | 146 | 3.0 | 5.0 | 0.00 | 0.00 | 0.00 | 61 | 1013.7 |
| 20260906142531 | 81 | 156 | 0.0 | 3.0 | 0.00 | 0.00 | 0.00 | 62 | 1013.7 |
| 20260906142031 | 81 | 156 | 0.0 | 5.0 | 0.00 | 0.00 | 0.00 | 62 | 1013.8 |
| 20260906141530 | 80 | 156 | 2.0 | 5.0 | 0.00 | 0.00 | 0.00 | 62 | 1013.7 |
| 20260906141030 | 80 | 171 | 1.0 | 4.0 | 0.00 | 0.00 | 0.00 | 63 | 1013.6 |
| 20260906140531 | 80 | 175 | 0.0 | 3.0 | 0.00 | 0.00 | 0.00 | 63 | 1013.7 |
| 20260906140029 | 80 | 175 | 0.0 | 4.0 | 0.00 | 0.00 | 0.00 | 64 | 1013.6 |
| 20260906135529 | 79 | 175 | 2.0 | 4.0 | 0.00 | 0.00 | 0.00 | 64 | 1013.5 |
| 20260906135028 | 79 | 175 | 0.0 | 4.0 | 0.00 | 0.00 | 0.00 | 64 | 1013.5 |
| 20260906134532 | 79 | 175 | 1.0 | 4.0 | 0.00 | 0.00 | 0.00 | 66 | 1013.4 |
| 20260906134027 | 78 | 175 | 2.0 | 4.0 | 0.00 | 0.00 | 0.00 | 66 | 1013.4 |
| 20260906133526 | 78 | 180 | 1.0 | 4.0 | 0.00 | 0.00 | 0.00 | 67 | 1013.5 |
| 20260906133026 | 78 | 180 | 1.0 | 4.0 | 0.00 | 0.00 | 0.00 | 67 | 1013.5 |
| 20260906132526 | 78 | 185 | 0.0 | 3.0 | 0.00 | 0.00 | 0.00 | 68 | 1013.6 |
| 20260906132024 | 77 | 185 | 0.0 | 1.0 | 0.00 | 0.00 | 0.00 | 68 | 1013.7 |
| 20260906131524 | 77 | 185 | 0.0 | 0.0 | 0.00 | 0.00 | 0.00 | 68 | 1013.6 |
| 20260906131023 | 77 | 185 | 0.0 | 0.0 | 0.00 | 0.00 | 0.00 | 68 | 1013.6 |
| 20260906130523 | 76 | 185 | 0.0 | 0.0 | 0.00 | 0.00 | 0.00 | 67 | 1013.5 |
| 20260906130026 | 76 | 185 | 0.0 | 0.0 | 0.00 | 0.00 | 0.00 | 67 | 1013.4 |
| 20260906125522 | 76 | 185 | 0.0 | 0.0 | 0.00 | 0.00 | 0.00 | 67 | 1013.4 |
| 20260906125020 | 76 | 185 | 0.0 | 0.0 | 0.00 | 0.00 | 0.00 | 67 | 1013.2 |
| 20260906124519 | 76 | 185 | 0.0 | 0.0 | 0.00 | 0.00 | 0.00 | 67 | 1013.3 |
| 20260906124020 | 76 | 185 | 0.0 | 0.0 | 0.00 | 0.00 | 0.00 | 66 | 1013.2 |
| 20260906123518 | 76 | 185 | 0.0 | 0.0 | 0.00 | 0.00 | 0.00 | 66 | 1013.2 |
| 20260906123018 | 76 | 185 | 0.0 | 1.0 | 0.00 | 0.00 | 0.00 | 66 | 1013.2 |
| 20260906122518 | 76 | 185 | 0.0 | 1.0 | 0.00 | 0.00 | 0.00 | 66 | 1013.2 |
| 20260906122019 | 76 | 185 | 0.0 | 0.0 | 0.00 | 0.00 | 0.00 | 66 | 1013.2 |
| 20260906121517 | 76 | 185 | 0.0 | 1.0 | 0.00 | 0.00 | 0.00 | 66 | 1013.1 |
| 20260906121018 | 76 | 185 | 0.0 | 1.0 | 0.00 | 0.00 | 0.00 | 66 | 1013.0 |
| 20260906120516 | 76 | 185 | 0.0 | 0.0 | 0.00 | 0.00 | 0.00 | 65 | 1013.0 |
| 20260906120015 | 76 | 185 | 0.0 | 0.0 | 0.00 | 0.00 | 0.00 | 65 | 1012.9 |
| 20260906115515 | 76 | 185 | 0.0 | 0.0 | 0.00 | 0.00 | 0.00 | 65 | 1012.8 |
| 20260906115013 | 76 | 185 | 0.0 | 0.0 | 0.00 | 0.00 | 0.00 | 65 | 1012.8 |
| 20260906114513 | 76 | 185 | 0.0 | 0.0 | 0.00 | 0.00 | 0.00 | 65 | 1012.7 |
| 20260906114017 | 77 | 185 | 0.0 | 0.0 | 0.00 | 0.00 | 0.00 | 65 | 1012.8 |
| 20260906113512 | 77 | 185 | 0.0 | 1.0 | 0.00 | 0.00 | 0.00 | 65 | 1012.7 |
| 20260906113012 | 77 | 185 | 0.0 | 1.0 | 0.00 | 0.00 | 0.00 | 65 | 1012.8 |
| 20260906112511 | 77 | 185 | 0.0 | 0.0 | 0.00 | 0.00 | 0.00 | 65 | 1012.6 |
| 20260906112115 | 77 | 185 | 0.0 | 0.0 | 0.00 | 0.00 | 0.00 | 65 | 1012.7 |
| 20260906111511 | 77 | 185 | 0.0 | 0.0 | 0.00 | 0.00 | 0.00 | 65 | 1012.7 |
| 20260906111010 | 77 | 185 | 0.0 | 0.0 | 0.00 | 0.00 | 0.00 | 65 | 1012.6 |
| 20260906110512 | 77 | 185 | 0.0 | 1.0 | 0.00 | 0.00 | 0.00 | 65 | 1012.7 |
| 20260906110010 | 77 | 185 | 0.0 | 1.0 | 0.00 | 0.00 | 0.00 | 65 | 1012.5 |
| 20260906105509 | 77 | 185 | 0.0 | 1.0 | 0.00 | 0.00 | 0.00 | 66 | 1012.5 |
| 20260906105009 | 77 | 185 | 0.0 | 0.0 | 0.00 | 0.00 | 0.00 | 66 | 1012.5 |
| 20260906104507 | 77 | 185 | 0.0 | 0.0 | 0.00 | 0.00 | 0.00 | 66 | 1012.3 |
| 20260906104009 | 77 | 185 | 0.0 | 0.0 | 0.00 | 0.00 | 0.00 | 66 | 1012.4 |
| 20260906103506 | 77 | 185 | 0.0 | 0.0 | 0.00 | 0.00 | 0.00 | 66 | 1012.3 |
| 20260906103007 | 78 | 185 | 0.0 | 1.0 | 0.00 | 0.00 | 0.00 | 66 | 1012.3 |
| 20260906102506 | 78 | 185 | 0.0 | 1.0 | 0.00 | 0.00 | 0.00 | 66 | 1012.4 |
| 20260906102006 | 78 | 185 | 0.0 | 1.0 | 0.00 | 0.00 | 0.00 | 66 | 1012.3 |
| 20260906101505 | 78 | 185 | 0.0 | 1.0 | 0.00 | 0.00 | 0.00 | 66 | 1012.4 |
| 20260906101004 | 78 | 185 | 0.0 | 1.0 | 0.00 | 0.00 | 0.00 | 66 | 1012.3 |
| 20260906100504 | 78 | 185 | 0.0 | 1.0 | 0.00 | 0.00 | 0.00 | 66 | 1012.2 |
| 20260906100004 | 78 | 185 | 0.0 | 1.0 | 0.00 | 0.00 | 0.00 | 66 | 1012.3 |
| 20260906095502 | 79 | 185 | 0.0 | 1.0 | 0.00 | 0.00 | 0.00 | 66 | 1012.2 |
| 20260906095002 | 79 | 185 | 0.0 | 1.0 | 0.00 | 0.00 | 0.00 | 66 | 1012.2 |
| 20260906094501 | 79 | 185 | 0.0 | 0.0 | 0.00 | 0.00 | 0.00 | 66 | 1012.1 |
| 20260906094001 | 79 | 185 | 0.0 | 0.0 | 0.00 | 0.00 | 0.00 | 66 | 1012.1 |
| 20260906093604 | 79 | 185 | 0.0 | 0.0 | 0.00 | 0.00 | 0.00 | 66 | 1012.0 |
| 20260906093100 | 79 | 185 | 0.0 | 0.0 | 0.00 | 0.00 | 0.00 | 66 | 1011.9 |
| 20260906092601 | 79 | 185 | 0.0 | 0.0 | 0.00 | 0.00 | 0.00 | 66 | 1011.9 |
| 20260906092059 | 80 | 185 | 0.0 | 0.0 | 0.00 | 0.00 | 0.00 | 66 | 1011.9 |
| 20260906091559 | 80 | 185 | 0.0 | 2.0 | 0.00 | 0.00 | 0.00 | 66 | 1011.9 |
| 20260906091100 | 80 | 185 | 0.0 | 0.0 | 0.00 | 0.00 | 0.00 | 66 | 1011.8 |
| 20260906090558 | 80 | 185 | 0.0 | 2.0 | 0.00 | 0.00 | 0.00 | 65 | 1011.8 |
| 20260906090101 | 80 | 185 | 0.0 | 2.0 | 0.00 | 0.00 | 0.00 | 65 | 1011.7 |
| 20260906085559 | 80 | 185 | 0.0 | 3.0 | 0.00 | 0.00 | 0.00 | 65 | 1011.7 |
| 20260906085100 | 80 | 185 | 0.0 | 4.0 | 0.00 | 0.00 | 0.00 | 65 | 1011.7 |
| 20260906084557 | 80 | 185 | 0.0 | 4.0 | 0.00 | 0.00 | 0.00 | 65 | 1011.7 |
| 20260906084055 | 80 | 185 | 0.0 | 4.0 | 0.00 | 0.00 | 0.00 | 65 | 1011.7 |
| 20260906083555 | 80 | 185 | 0.0 | 5.0 | 0.00 | 0.00 | 0.00 | 65 | 1011.6 |
| 20260906083055 | 80 | 185 | 0.0 | 5.0 | 0.00 | 0.00 | 0.00 | 65 | 1011.6 |
| 20260906082554 | 80 | 185 | 0.0 | 2.0 | 0.00 | 0.00 | 0.00 | 65 | 1011.5 |
| 20260906082054 | 80 | 185 | 0.0 | 2.0 | 0.00 | 0.00 | 0.00 | 65 | 1011.6 |
| 20260906081554 | 80 | 185 | 0.0 | 3.0 | 0.00 | 0.00 | 0.00 | 65 | 1011.6 |
| 20260906081055 | 80 | 185 | 1.0 | 3.0 | 0.00 | 0.00 | 0.00 | 65 | 1011.5 |
| 20260906080554 | 81 | 185 | 0.0 | 3.0 | 0.00 | 0.00 | 0.00 | 64 | 1011.7 |
| 20260906080058 | 81 | 185 | 0.0 | 3.0 | 0.00 | 0.00 | 0.00 | 64 | 1011.5 |
| 20260906075552 | 81 | 185 | 0.0 | 2.0 | 0.00 | 0.00 | 0.00 | 64 | 1011.8 |
| 20260906075053 | 81 | 185 | 0.0 | 1.0 | 0.00 | 0.00 | 0.00 | 64 | 1011.9 |
| 20260906074558 | 81 | 185 | 0.0 | 1.0 | 0.00 | 0.00 | 0.00 | 64 | 1011.8 |
| 20260906074050 | 81 | 185 | 0.0 | 1.0 | 0.00 | 0.00 | 0.00 | 64 | 1011.8 |
| 20260906073550 | 81 | 185 | 0.0 | 1.0 | 0.00 | 0.00 | 0.00 | 63 | 1011.7 |
| 20260906073050 | 81 | 185 | 0.0 | 1.0 | 0.00 | 0.00 | 0.00 | 63 | 1011.7 |
| 20260906072552 | 82 | 185 | 0.0 | 2.0 | 0.00 | 0.00 | 0.00 | 63 | 1011.5 |
| 20260906072048 | 82 | 185 | 0.0 | 2.0 | 0.00 | 0.00 | 0.00 | 63 | 1011.7 |
| 20260906071549 | 82 | 185 | 0.0 | 2.0 | 0.00 | 0.00 | 0.00 | 62 | 1011.8 |
| 20260906071046 | 82 | 185 | 0.0 | 2.0 | 0.00 | 0.00 | 0.00 | 62 | 1011.9 |
| 20260906070546 | 82 | 185 | 0.0 | 4.0 | 0.00 | 0.00 | 0.00 | 62 | 1012.0 |
| 20260906070046 | 82 | 185 | 0.0 | 3.0 | 0.00 | 0.00 | 0.00 | 62 | 1012.0 |
| 20260906065547 | 82 | 185 | 0.0 | 5.0 | 0.00 | 0.00 | 0.00 | 62 | 1012.1 |
| 20260906065045 | 82 | 185 | 0.0 | 3.0 | 0.00 | 0.00 | 0.00 | 62 | 1012.1 |
| 20260906064544 | 82 | 185 | 0.0 | 3.0 | 0.00 | 0.00 | 0.00 | 61 | 1011.9 |
| 20260906064044 | 83 | 185 | 0.0 | 4.0 | 0.00 | 0.00 | 0.00 | 61 | 1012.0 |
| 20260906063543 | 83 | 185 | 1.0 | 4.0 | 0.00 | 0.00 | 0.00 | 61 | 1012.0 |
| 20260906063043 | 83 | 185 | 0.0 | 4.0 | 0.00 | 0.00 | 0.00 | 61 | 1012.0 |
| 20260906062542 | 83 | 185 | 0.0 | 3.0 | 0.00 | 0.00 | 0.00 | 61 | 1011.9 |
| 20260906062044 | 83 | 185 | 0.0 | 3.0 | 0.00 | 0.00 | 0.00 | 61 | 1011.9 |
| 20260906061542 | 83 | 185 | 0.0 | 2.0 | 0.00 | 0.00 | 0.00 | 60 | 1011.9 |
| 20260906061044 | 83 | 185 | 0.0 | 2.0 | 0.00 | 0.00 | 0.00 | 60 | 1011.9 |
| 20260906060541 | 83 | 185 | 0.0 | 1.0 | 0.00 | 0.00 | 0.00 | 60 | 1012.0 |
| 20260906060052 | 83 | 185 | 0.0 | 2.0 | 0.00 | 0.00 | 0.00 | 60 | 1012.0 |
| 20260906055543 | 83 | 185 | 0.0 | 4.0 | 0.00 | 0.00 | 0.00 | 60 | 1012.0 |
| 20260906055041 | 83 | 185 | 0.0 | 4.0 | 0.00 | 0.00 | 0.00 | 59 | 1012.1 |
| 20260906054540 | 83 | 185 | 1.0 | 4.0 | 0.00 | 0.00 | 0.00 | 59 | 1012.1 |
| 20260906054039 | 83 | 185 | 0.0 | 4.0 | 0.00 | 0.00 | 0.00 | 59 | 1012.2 |
| 20260906053538 | 83 | 185 | 1.0 | 4.0 | 0.00 | 0.00 | 0.00 | 60 | 1012.1 |
| 20260906053038 | 84 | 185 | 0.0 | 1.0 | 0.00 | 0.00 | 0.00 | 60 | 1012.1 |
| 20260906052541 | 84 | 185 | 0.0 | 3.0 | 0.00 | 0.00 | 0.00 | 60 | 1012.0 |
| 20260906052037 | 84 | 185 | 0.0 | 3.0 | 0.00 | 0.00 | 0.00 | 60 | 1011.9 |
| 20260906051539 | 84 | 185 | 0.0 | 3.0 | 0.00 | 0.00 | 0.00 | 60 | 1011.9 |
| 20260906051036 | 84 | 185 | 0.0 | 3.0 | 0.00 | 0.00 | 0.00 | 60 | 1011.8 |
| 20260906050535 | 84 | 185 | 0.0 | 3.0 | 0.00 | 0.00 | 0.00 | 60 | 1012.0 |
| 20260906050034 | 84 | 185 | 0.0 | 3.0 | 0.00 | 0.00 | 0.00 | 59 | 1012.0 |
| 20260906045537 | 84 | 185 | 0.0 | 4.0 | 0.00 | 0.00 | 0.00 | 59 | 1011.9 |
| 20260906045033 | 85 | 185 | 1.0 | 4.0 | 0.00 | 0.00 | 0.00 | 59 | 1011.9 |
| 20260906044535 | 85 | 185 | 1.0 | 4.0 | 0.00 | 0.00 | 0.00 | 59 | 1012.0 |
| 20260906044034 | 85 | 185 | 0.0 | 3.0 | 0.00 | 0.00 | 0.00 | 59 | 1012.0 |
| 20260906043533 | 85 | 185 | 0.0 | 3.0 | 0.00 | 0.00 | 0.00 | 59 | 1012.0 |
| 20260906043036 | 85 | 185 | 0.0 | 2.0 | 0.00 | 0.00 | 0.00 | 59 | 1012.0 |
| 20260906042533 | 85 | 185 | 0.0 | 2.0 | 0.00 | 0.00 | 0.00 | 58 | 1012.1 |
| 20260906042032 | 85 | 185 | 0.0 | 3.0 | 0.00 | 0.00 | 0.00 | 58 | 1012.0 |
| 20260906041540 | 85 | 185 | 0.0 | 3.0 | 0.00 | 0.00 | 0.00 | 58 | 1012.0 |
| 20260906041033 | 85 | 185 | 0.0 | 3.0 | 0.00 | 0.00 | 0.00 | 58 | 1012.0 |
| 20260906040534 | 85 | 185 | 0.0 | 6.0 | 0.00 | 0.00 | 0.00 | 58 | 1012.0 |
| 20260906040036 | 85 | 185 | 1.0 | 4.0 | 0.00 | 0.00 | 0.00 | 58 | 1012.1 |
| 20260906035531 | 86 | 185 | 0.0 | 3.0 | 0.00 | 0.00 | 0.00 | 58 | 1012.0 |
| 20260906035033 | 86 | 185 | 0.0 | 4.0 | 0.00 | 0.00 | 0.00 | 58 | 1012.1 |
| 20260906034534 | 86 | 185 | 0.0 | 4.0 | 0.00 | 0.00 | 0.00 | 58 | 1012.1 |
| 20260906034034 | 86 | 185 | 0.0 | 4.0 | 0.00 | 0.00 | 0.00 | 58 | 1012.0 |
| 20260906033531 | 86 | 185 | 0.0 | 5.0 | 0.00 | 0.00 | 0.00 | 58 | 1011.9 |
| 20260906033032 | 86 | 185 | 0.0 | 6.0 | 0.00 | 0.00 | 0.00 | 57 | 1011.9 |
| 20260906032530 | 86 | 185 | 2.0 | 6.0 | 0.00 | 0.00 | 0.00 | 57 | 1012.0 |
| 20260906032031 | 86 | 185 | 0.0 | 8.0 | 0.00 | 0.00 | 0.00 | 57 | 1012.1 |
| 20260906031530 | 86 | 185 | 1.0 | 8.0 | 0.00 | 0.00 | 0.00 | 57 | 1012.2 |
| 20260906031033 | 86 | 185 | 1.0 | 6.0 | 0.00 | 0.00 | 0.00 | 57 | 1012.0 |
| 20260906030531 | 87 | 185 | 1.0 | 6.0 | 0.00 | 0.00 | 0.00 | 57 | 1012.1 |
| 20260906030031 | 87 | 185 | 0.0 | 6.0 | 0.00 | 0.00 | 0.00 | 57 | 1012.1 |
| 20260906025530 | 87 | 190 | 1.0 | 6.0 | 0.00 | 0.00 | 0.00 | 56 | 1012.1 |
| 20260906025030 | 87 | 185 | 0.0 | 6.0 | 0.00 | 0.00 | 0.00 | 56 | 1012.0 |
| 20260906024531 | 87 | 185 | 1.0 | 6.0 | 0.00 | 0.00 | 0.00 | 56 | 1011.9 |
| 20260906024029 | 87 | 189 | 0.0 | 6.0 | 0.00 | 0.00 | 0.00 | 56 | 1011.9 |
| 20260906023529 | 87 | 189 | 1.0 | 6.0 | 0.00 | 0.00 | 0.00 | 55 | 1011.7 |
| 20260906023032 | 87 | 190 | 1.0 | 5.0 | 0.00 | 0.00 | 0.00 | 55 | 1011.6 |
| 20260906022528 | 87 | 185 | 0.0 | 4.0 | 0.00 | 0.00 | 0.00 | 55 | 1011.5 |
| 20260906022037 | 88 | 190 | 1.0 | 5.0 | 0.00 | 0.00 | 0.00 | 55 | 1012.0 |
| 20260906021529 | 88 | 189 | 1.0 | 5.0 | 0.00 | 0.00 | 0.00 | 54 | 1011.5 |
| 20260906021028 | 88 | 185 | 1.0 | 4.0 | 0.00 | 0.00 | 0.00 | 54 | 1011.4 |
| 20260906020529 | 88 | 185 | 1.0 | 4.0 | 0.00 | 0.00 | 0.00 | 54 | 1011.4 |
| 20260906020027 | 88 | 185 | 0.0 | 9.0 | 0.00 | 0.00 | 0.00 | 53 | 1011.3 |
| 20260906015530 | 89 | 199 | 0.0 | 8.0 | 0.00 | 0.00 | 0.00 | 53 | 1011.3 |
| 20260906015028 | 89 | 201 | 1.0 | 8.0 | 0.00 | 0.00 | 0.00 | 53 | 1011.0 |
| 20260906014533 | 89 | 180 | 0.0 | 4.0 | 0.00 | 0.00 | 0.00 | 53 | 1011.1 |
| 20260906014029 | 89 | 180 | 0.0 | 4.0 | 0.00 | 0.00 | 0.00 | 52 | 1011.1 |
| 20260906013527 | 90 | 185 | 0.0 | 5.0 | 0.00 | 0.00 | 0.00 | 51 | 1011.0 |
| 20260906013027 | 90 | 185 | 0.0 | 5.0 | 0.00 | 0.00 | 0.00 | 51 | 1010.9 |
| 20260906012527 | 91 | 185 | 1.0 | 5.0 | 0.00 | 0.00 | 0.00 | 50 | 1010.8 |
| 20260906012031 | 91 | 175 | 0.0 | 5.0 | 0.00 | 0.00 | 0.00 | 49 | 1010.7 |
| 20260906011626 | 91 | 175 | 0.0 | 5.0 | 0.00 | 0.00 | 0.00 | 48 | 1010.6 |
| 20260906011025 | 92 | 175 | 1.0 | 5.0 | 0.00 | 0.00 | 0.00 | 48 | 1010.6 |
| 20260906010525 | 92 | 164 | 0.0 | 3.0 | 0.00 | 0.00 | 0.00 | 48 | 1010.5 |
| 20260906010026 | 93 | 152 | 0.0 | 8.0 | 0.00 | 0.00 | 0.00 | 47 | 1010.3 |
| 20260906005525 | 93 | 121 | 1.0 | 8.0 | 0.00 | 0.00 | 0.00 | 46 | 1010.2 |
| 20260906005029 | 93 | 80 | 0.0 | 2.0 | 0.00 | 0.00 | 0.00 | 44 | 1010.1 |
| 20260906004525 | 93 | 80 | 0.0 | 2.0 | 0.00 | 0.00 | 0.00 | 44 | 1010.0 |
| 20260906004024 | 93 | 80 | 0.0 | 2.0 | 0.00 | 0.00 | 0.00 | 44 | 1010.0 |
| 20260906003524 | 93 | 80 | 0.0 | 2.0 | 0.00 | 0.00 | 0.00 | 44 | 1010.0 |
| 20260906003024 | 94 | 80 | 0.0 | 2.0 | 0.00 | 0.00 | 0.00 | 43 | 1010.0 |
| 20260906002524 | 94 | 80 | 0.0 | 2.0 | 0.00 | 0.00 | 0.00 | 44 | 1010.5 |
| 20260906002024 | 94 | 80 | 0.0 | 2.0 | 0.00 | 0.00 | 0.00 | 44 | 1010.1 |
| 20260906001523 | 94 | 80 | 0.0 | 4.0 | 0.00 | 0.00 | 0.00 | 43 | 1010.1 |
| 20260906001023 | 94 | 80 | 0.0 | 4.0 | 0.00 | 0.00 | 0.00 | 43 | 1010.1 |
| 20260906000528 | 95 | 79 | 1.0 | 6.0 | 0.00 | 0.00 | 0.00 | 42 | 1010.1 |
| 20260906000023 | 95 | 78 | 1.0 | 7.0 | 0.00 | 0.00 | 0.00 | 42 | 1010.0 |
| 20260905235523 | 95 | 79 | 0.0 | 7.0 | 0.00 | 0.00 | 0.00 | 41 | 1010.0 |
| 20260905235022 | 95 | 81 | 1.0 | 4.0 | 0.00 | 0.00 | 0.00 | 42 | 1010.0 |
| 20260905234521 | 95 | 79 | 0.0 | 7.0 | 0.00 | 0.00 | 0.00 | 41 | 1009.8 |
| 20260905234023 | 95 | 77 | 2.0 | 7.0 | 0.00 | 0.00 | 0.00 | 42 | 1009.9 |
| 20260905233521 | 96 | 80 | 2.0 | 7.0 | 0.00 | 0.00 | 0.00 | 41 | 1009.9 |
| 20260905233020 | 96 | 71 | 0.0 | 7.0 | 0.00 | 0.00 | 0.00 | 41 | 1009.9 |
| 20260905232523 | 96 | 71 | 1.0 | 7.0 | 0.00 | 0.00 | 0.00 | 41 | 1009.9 |
| 20260905232020 | 96 | 80 | 0.0 | 10.0 | 0.00 | 0.00 | 0.00 | 41 | 1009.9 |
| 20260905231521 | 96 | 80 | 2.0 | 10.0 | 0.00 | 0.00 | 0.00 | 40 | 1010.0 |
| 20260905231020 | 96 | 80 | 4.0 | 10.0 | 0.00 | 0.00 | 0.00 | 40 | 1010.0 |
| 20260905230524 | 96 | 78 | 2.0 | 9.0 | 0.00 | 0.00 | 0.00 | 41 | 1010.0 |
| 20260905230021 | 96 | 81 | 3.0 | 9.0 | 0.00 | 0.00 | 0.00 | 40 | 1010.0 |
| 20260905225520 | 96 | 67 | 3.0 | 8.0 | 0.00 | 0.00 | 0.00 | 40 | 1009.9 |
| 20260905225020 | 96 | 75 | 0.0 | 7.0 | 0.00 | 0.00 | 0.00 | 40 | 1009.9 |
| 20260905224521 | 96 | 76 | 3.0 | 8.0 | 0.00 | 0.00 | 0.00 | 40 | 1009.9 |
| 20260905224019 | 96 | 74 | 2.0 | 8.0 | 0.00 | 0.00 | 0.00 | 40 | 1009.8 |
| 20260905223522 | 97 | 108 | 1.0 | 8.0 | 0.00 | 0.00 | 0.00 | 38 | 1009.8 |
| 20260905223018 | 97 | 81 | 0.0 | 3.0 | 0.00 | 0.00 | 0.00 | 38 | 1009.9 |